User: anonymous   Login
Location: Unspecified
(0.0000°N, 0.0000°E)
Time: 23:32:51
(UTC+00:00)
Language:

Vela 1A - Orbit

View from above orbital plane
View from above orbital plane
View from above satellite
View from above satellite

Ground track
Ground track

The orbit data is extracted from the following two-line orbital elements,

1 00692U 63039C   14299.52772857 -.00000614  00000-0  00000+0 0   134
2 00692 032.2111 008.9193 5748706 144.9642 001.6002 00.22013555 41182
Epoch (UTC): 26 October 2014 12:39:55
Eccentricity: 0.5748706
inclination: 32.2111°
perigee height: 42878 km
apogee height: 176088 km
right ascension of ascending node: 8.9193°
argument of perigee: 144.9642°
revolutions per day: 0.22013555
mean anomaly at epoch: 1.6002°
orbit number at epoch: 4118

The dashed part of the orbit path shows where the satellite is in the earth's shadow,  

DLR